"2010-01-16 00:00:00",1595800,6.314,170.3,5.638,1.07,8.48,101.8311,3.972,5.245,26.35,0,109.9,13.45,4.74,132.3
"2010-01-16 00:00:30",1595801,6.059,170.1,5.914,1.194,8.35,101.8311,3.972,5.243,26.26,0,109.9,13.45,4.74,132.1
"2010-01-16 00:01:00",1595802,6.026,169.8,6.069,1.202,8.36,101.8297,3.968,5.297,26.27,0,109.9,13.45,4.73,131.8
"2010-01-16 00:01:30",1595803,5.686,164.8,6.801,1.237,6.969,101.8235,3.953,5.114,25.93,0,109.9,13.46,4.72,126.8
"2010-01-16 00:02:00",1595804,5.267,163,6.115,1.138,6.557,101.8088,3.915,5.165,25.86,0,109.9,13.46,4.68,125.0
"2010-01-16 00:02:30",1595805,5.648,164.5,6.443,1.232,7.122,101.7978,3.887,5.13,25.76,0,109.9,13.46,4.65,126.5
"2010-01-16 00:03:00",1595806,5.792,166,6.572,1.241,7.758,101.7972,3.885,5.25,25.9,0,109.9,13.46,4.65,128.0
"2010-01-16 00:03:30",1595807,6.45,167.7,5.807,1.119,8.62,101.7972,3.885,5.232,25.79,0,109.9,13.46,4.65,129.7
"2010-01-16 00:04:00",1595808,6.286,166.3,5.573,1.193,8.63,101.7972,3.885,5.214,25.64,0,109.8,13.46,4.65,128.3
"2010-01-16 00:04:30",1595809,6.199,164.6,5.841,1.223,7.653,101.7989,3.89,5.035,25.41,0,109.8,13.46,4.66,126.6
"2010-01-16 00:05:00",1595810,5.869,162.8,6.48,1.263,7.349,101.8015,3.896,5.144,25.49,0,109.8,13.47,4.66,124.8
"2010-01-16 00:05:30",1595811,5.71,159.9,6.086,1.23,6.755,101.807,3.91,5.017,25.35,0,109.8,13.46,4.68,121.9
"2010-01-16 00:06:00",1595812,6.63,164.9,5.305,1.013,8.6,101.8033,3.901,5.108,25.46,0,109.8,13.46,4.67,126.9
"2010-01-16 00:06:30",1595813,5.79,161.7,6.814,1.231,7.344,101.7873,3.86,5.111,25.52,0,109.9,13.46,4.63,123.7
"2010-01-16 00:07:00",1595814,5.947,162.4,6.271,1.267,7.84,101.7846,3.853,5.124,25.63,0,109.8,13.46,4.62,124.4
"2010-01-16 00:07:30",1595815,5.283,155.5,6.205,1.127,6.015,101.7895,3.866,4.938,25.49,0,109.8,13.46,4.63,117.5
"2010-01-16 00:08:00",1595816,6.309,159.8,5.685,1.078,8.63,101.7921,3.872,5.133,25.68,0,109.8,13.46,4.64,121.8
"2010-01-16 00:08:30",1595817,6.179,158.7,5.917,1.164,8.12,101.7949,3.88,5.078,25.72,0,109.8,13.46,4.65,120.7
"2010-01-16 00:09:00",1595818,5.774,155.8,6.462,1.26,7.563,101.797,3.885,5.114,25.83,0,109.8,13.46,4.65,117.8
"2010-01-16 00:09:30",1595819,6.422,158.2,5.494,1.076,8.31,101.7973,3.886,5.058,25.76,0,109.8,13.46,4.65,120.2
"2010-01-16 00:10:00",1595820,4.968,151.3,4.134,0.874,5.499,101.7939,3.877,4.979,25.8,0,109.8,13.46,4.64,113.3
"2010-01-16 00:10:30",1595821,6.198,157.1,6.456,1.203,7.47,101.7814,3.845,4.921,25.87,0,109.8,13.47,4.61,119.1
"2010-01-16 00:11:00",1595822,6.241,158.2,5.674,1.201,8.55,101.7664,3.807,5.091,26.23,0,109.8,13.47,4.57,120.2
"2010-01-16 00:11:30",1595823,6.055,156.3,5.975,1.236,8.16,101.7639,3.8,5.128,26.55,0,109.8,13.47,4.57,118.3
"2010-01-16 00:12:00",1595824,6.451,157.5,5.542,1.068,8.18,101.7639,3.8,5.089,26.81,0,109.8,13.47,4.57,119.5
"2010-01-16 00:12:30",1595825,5.911,155.2,6.352,1.223,7.112,101.7639,3.8,4.953,26.81,0,109.8,13.47,4.57,117.2
"2010-01-16 00:13:00",1595826,4.956,151.1,5.178,1.003,5.623,101.7639,3.8,4.825,27.18,0,109.8,13.47,4.57,113.1
"2010-01-16 00:13:30",1595827,6.151,156.7,6.422,1.163,7.444,101.7639,3.8,4.943,27.37,0,109.8,13.47,4.57,118.7
"2010-01-16 00:14:00",1595828,5.972,158.1,6.194,1.223,8.48,101.7639,3.8,5.072,27.65,0,109.8,13.48,4.57,120.1
"2010-01-16 00:14:30",1595829,6.53,161.3,4.022,1.016,9.1,101.7566,3.782,5.067,28.17,0,109.8,13.48,4.55,123.3
"2010-01-16 00:15:00",1595830,6.208,159,6.054,1.113,8.14,101.7467,3.756,4.98,28.24,0,109.8,13.48,4.52,121.0
"2010-01-16 00:15:30",1595831,5.164,153.9,5.833,1.173,5.929,101.7337,3.723,4.899,28.35,0,109.8,13.47,4.49,115.9
"2010-01-16 00:16:00",1595832,4.469,150.6,0.31,0.037,4.632,101.73,3.714,4.803,28.51,0,109.8,13.51,4.48,112.6
"2010-01-16 00:16:30",1595833,6.112,159.4,5.789,1.188,8.23,101.73,3.714,5.014,28.77,0,109.8,13.48,4.48,121.4
"2010-01-16 00:17:00",1595834,6.225,160.3,5.996,1.107,8.76,101.73,3.714,5.024,28.65,0,109.8,13.48,4.48,122.3
"2010-01-16 00:17:30",1595835,6.241,161,5.283,1.121,8.9,101.73,3.714,5.031,28.75,0,109.8,13.48,4.48,123.0
"2010-01-16 00:18:00",1595836,6.241,160.8,5.704,1.112,8.07,101.73,3.714,5.009,28.53,0,109.8,13.48,4.48,122.8
"2010-01-16 00:18:30",1595837,4.774,153.4,4.487,0.815,5.395,101.7235,3.697,4.901,27.93,0,109.8,13.48,4.46,115.4
"2010-01-16 00:19:00",1595838,4.562,152.9,3.267,0.452,5.086,101.7096,3.662,4.83,27.76,0,109.8,13.5,4.43,114.9
"2010-01-16 00:19:30",1595839,6.362,162,5.531,1.151,8.47,101.6966,3.629,4.917,27.77,0,109.8,13.48,4.39,124.0
"2010-01-16 00:20:00",1595840,5.94,158.7,6.341,1.215,7.859,101.6966,3.629,4.953,27.73,0,109.8,13.48,4.39,120.7
"2010-01-16 00:20:30",1595841,6.953,165.4,4.403,0.555,9.92,101.6981,3.632,5.017,27.73,0,109.8,13.48,4.40,127.4
"2010-01-16 00:21:00",1595842,6.476,164,5.725,1.117,8.34,101.6992,3.635,4.943,27.42,0,109.8,13.48,4.40,126.0
"2010-01-16 00:21:30",1595843,5.28,158.6,5.657,1.058,5.934,101.7027,3.644,4.799,27.13,0,109.8,13.48,4.41,120.6
"2010-01-16 00:22:00",1595844,4.517,155.1,0.473,0.069,4.752,101.7033,3.646,4.755,27.12,0,109.8,13.51,4.41,117.1
"2010-01-16 00:22:30",1595845,6.167,165.5,5.418,1.108,8.59,101.6959,3.627,4.903,27.31,0,109.8,13.48,4.39,127.5
"2010-01-16 00:23:00",1595846,5.648,162.3,6.388,1.261,7.671,101.6852,3.6,4.832,27.33,0,109.8,13.48,4.36,124.3
"2010-01-16 00:23:30",1595847,6.619,166.9,3.348,0.573,9.46,101.6793,3.585,4.96,27.56,0,109.8,13.48,4.35,128.9
"2010-01-16 00:24:00",1595848,5.575,161.7,6.537,1.249,7.458,101.6794,3.585,4.893,27.52,0,109.8,13.48,4.35,123.7
"2010-01-16 00:24:30",1595849,4.752,157.5,5.183,1.022,5.536,101.6777,3.58,4.712,27.43,0,109.8,13.48,4.34,119.5
"2010-01-16 00:25:00",1595850,5.229,160.5,6.19,1.218,6.461,101.6834,3.595,4.778,27.56,0,109.8,13.48,4.36,122.5
"2010-01-16 00:25:30",1595851,5.147,157.5,5.957,1.138,6.426,101.684,3.596,4.768,27.43,0,109.8,13.48,4.36,119.5
"2010-01-16 00:26:00",1595852,5.552,159,6.526,1.236,7.598,101.688,3.607,4.81,27.42,0,109.8,13.49,4.37,121.0
"2010-01-16 00:26:30",1595853,6.71,165.1,2.668,0.657,9.39,101.6889,3.609,4.924,27.53,0,109.8,13.49,4.37,127.1
"2010-01-16 00:27:00",1595854,6.192,161.4,5.946,1.092,8.32,101.6877,3.606,4.863,27.5,0,109.7,13.49,4.37,123.4
"2010-01-16 00:27:30",1595855,5.093,155.3,6.346,1.168,6.015,101.6849,3.599,4.698,27.29,0,109.8,13.49,4.36,117.3
"2010-01-16 00:28:00",1595856,5.337,157.3,6.375,1.209,6.7,101.6717,3.565,4.705,27.24,0,109.8,13.49,4.33,119.3
"2010-01-16 00:28:30",1595857,5.4,159.8,6.536,1.246,7.389,101.6604,3.536,4.827,27.27,0,109.8,13.5,4.30,121.8
"2010-01-16 00:29:00",1595858,5.434,158.5,6.674,1.258,6.917,101.6604,3.536,4.685,27.07,0,109.8,13.5,4.30,120.5
"2010-01-16 00:29:30",1595859,6.512,165.3,2.83,0.869,9.25,101.6601,3.535,4.868,27.25,0,109.8,13.5,4.30,127.3
"2010-01-16 00:30:00",1595860,6.118,161.4,6.238,1.066,8.3,101.6627,3.542,4.877,27.09,0,109.8,13.5,4.31,123.4
"2010-01-16 00:30:30",1595861,5.282,156.6,6.109,1.193,6.277,101.6627,3.542,4.701,26.99,0,109.8,13.5,4.31,118.6
"2010-01-16 00:31:00",1595862,5.363,156.5,6.485,1.146,6.052,101.6627,3.542,4.605,26.88,0,109.7,13.5,4.31,118.5
"2010-01-16 00:31:30",1595863,6.09,159.5,6.113,1.205,7.217,101.6627,3.542,4.656,27.17,0,109.8,13.5,4.31,121.5
"2010-01-16 00:32:00",1595864,5.752,158.5,7.028,1.25,7.235,101.6624,3.541,4.733,27.99,0,109.7,13.5,4.31,120.5
"2010-01-16 00:32:30",1595865,6.822,164.2,5.444,0.856,9.51,101.6604,3.536,4.837,28.44,0,109.7,13.5,4.30,126.2
"2010-01-16 00:33:00",1595866,6.773,166.9,4.476,0.854,9.19,101.6514,3.513,4.828,28.56,0,109.7,13.5,4.28,128.9
"2010-01-16 00:33:30",1595867,5.584,162,6.063,1.217,6.673,101.6446,3.496,4.708,28.03,0,109.7,13.5,4.26,124.0
"2010-01-16 00:34:00",1595868,5.556,162,6.305,1.207,6.29,101.635,3.471,4.66,28.01,0,109.7,13.5,4.24,124.0
"2010-01-16 00:34:30",1595869,4.711,158.6,3.967,0.614,4.927,101.6302,3.459,4.609,27.95,0,109.7,13.5,4.22,120.6
"2010-01-16 00:35:00",1595870,5.762,164.8,6.599,1.195,7.044,101.6288,3.455,4.642,27.62,0,109.8,13.5,4.22,126.8
"2010-01-16 00:35:30",1595871,6.972,171.1,4.151,0.584,9.59,101.6288,3.455,4.811,27.59,0,109.8,13.5,4.22,133.1
"2010-01-16 00:36:00",1595872,6.695,172.1,3.757,0.937,9.33,101.6288,3.455,4.805,27.51,0,109.8,13.5,4.22,134.1
"2010-01-16 00:36:30",1595873,6.398,167.8,5.958,1.132,7.548,101.6288,3.455,4.652,27.65,0,109.7,13.5,4.22,129.8
"2010-01-16 00:37:00",1595874,5.568,165.3,6.632,1.121,6.309,101.6288,3.455,4.615,27.82,0,109.7,13.5,4.22,127.3
"2010-01-16 00:37:30",1595875,4.862,162.2,2.643,0.457,4.847,101.6288,3.455,4.502,27.5,0,109.8,13.54,4.22,124.2
"2010-01-16 00:38:00",1595876,5.933,167.2,6.507,1.219,6.756,101.6285,3.455,4.578,27.68,0,109.7,13.5,4.22,129.2
"2010-01-16 00:38:30",1595877,6.978,174,2.96,0.863,9.28,101.6268,3.45,4.771,27.78,0,109.8,13.5,4.21,136.0
"2010-01-16 00:39:00",1595878,7.08,173.4,4.393,0.764,9.27,101.6259,3.448,4.718,27.64,0,109.7,13.5,4.21,135.4
"2010-01-16 00:39:30",1595879,6.436,171.3,6.018,1.179,7.976,101.6203,3.434,4.671,27.43,0,109.7,13.5,4.20,133.3
"2010-01-16 00:40:00",1595880,5.652,167.7,6.192,1.178,6.189,101.622,3.438,4.598,27.21,0,109.8,13.5,4.20,129.7
"2010-01-16 00:40:30",1595881,4.766,163.4,0.349,0.025,4.468,101.6158,3.422,4.454,26.91,0,109.8,13.53,4.19,125.4
"2010-01-16 00:41:00",1595882,5.839,169.6,6.375,1.205,6.719,101.6098,3.407,4.602,26.85,0,109.8,13.5,4.17,131.6
"2010-01-16 00:41:30",1595883,6.773,175,5.035,1.019,8.64,101.6039,3.392,4.74,27.11,0,109.8,13.5,4.16,137.0
"2010-01-16 00:42:00",1595884,6.499,172.8,5.983,1.188,8.5,101.6011,3.385,4.682,27.24,0,109.8,13.5,4.15,134.8
"2010-01-16 00:42:30",1595885,6.707,174.2,5.069,1.106,8.53,101.5971,3.375,4.709,27.31,0,109.8,13.5,4.14,136.2
"2010-01-16 00:43:00",1595886,5.915,169,5.951,1.175,6.473,101.5994,3.38,4.58,27.33,0,109.8,13.5,4.14,131.0
"2010-01-16 00:43:30",1595887,6.137,170.4,6.418,1.211,6.701,101.5994,3.381,4.545,28.01,0,109.8,13.5,4.14,132.4
"2010-01-16 00:44:00",1595888,6.347,171.9,6.946,1.299,7.182,101.5983,3.378,4.633,28.33,0,109.8,13.51,4.14,133.9
"2010-01-16 00:44:30",1595889,6.451,172.3,6.639,1.212,7.073,101.6037,3.391,4.657,27.81,0,109.8,13.51,4.16,134.3
"2010-01-16 00:45:00",1595890,7.425,177,4.391,0.954,8.95,101.6046,3.394,4.741,27.11,0,109.8,13.51,4.16,139.0
"2010-01-16 00:45:30",1595891,7.205,173.6,6.026,1.14,8.14,101.6026,3.389,4.629,26.75,0,109.7,13.51,4.15,135.6
"2010-01-16 00:46:00",1595892,7.195,173.9,5.62,1.066,8.47,101.6092,3.405,4.706,26.68,0,109.8,13.51,4.17,135.9
"2010-01-16 00:46:30",1595893,6.148,168.2,5.716,1.106,5.95,101.6106,3.409,4.494,26.27,0,109.7,13.51,4.17,130.2
"2010-01-16 00:47:00",1595894,7.036,172.9,5.706,1.171,7.908,101.614,3.418,4.688,26.68,0,109.7,13.51,4.18,134.9
"2010-01-16 00:47:30",1595895,6.127,168.2,6.486,1.259,6.592,101.6169,3.425,4.641,26.51,0,109.7,13.51,4.19,130.2
"2010-01-16 00:48:00",1595896,7.388,174.3,4.166,0.778,8.8,101.6201,3.433,4.631,26.29,0,109.7,13.51,4.20,136.3
"2010-01-16 00:48:30",1595897,6.657,169.6,6.338,1.195,7.547,101.6192,3.431,4.658,25.6,0,109.7,13.51,4.20,131.6
"2010-01-16 00:49:00",1595898,7.093,173.2,5.422,1.086,8.48,101.6204,3.434,4.67,26.21,0,109.8,13.51,4.20,135.2
"2010-01-16 00:49:30",1595899,6.669,171.6,6.236,1.25,7.221,101.6218,3.438,4.576,27.43,0,109.7,13.51,4.20,133.6
"2010-01-16 00:50:00",1595900,7.22,173.5,5.939,1.096,8.1,101.625,3.446,4.705,27.97,0,109.7,13.51,4.21,135.5
"2010-01-16 00:50:30",1595901,6.183,168.4,6.041,1.175,6.181,101.6233,3.441,4.598,27.85,0,109.7,13.51,4.21,130.4
"2010-01-16 00:51:00",1595902,6.749,170.8,6.542,1.25,7.054,101.6238,3.443,4.515,29.36,0,109.7,13.51,4.21,132.8
"2010-01-16 00:51:30",1595903,7.226,173.3,5.756,1.095,8.46,101.6236,3.442,4.7,28.45,0,109.7,13.51,4.21,135.3
"2010-01-16 00:52:00",1595904,7.281,172.9,5.122,1.123,8.34,101.6244,3.444,4.637,27.18,0,109.7,13.51,4.21,134.9
"2010-01-16 00:52:30",1595905,6.95,169.9,6.201,1.24,7.555,101.6253,3.447,4.709,27.37,0,109.7,13.51,4.21,131.9
"2010-01-16 00:53:00",1595906,6.494,168.7,6.213,1.224,6.675,101.6259,3.448,4.647,27.58,0,109.7,13.51,4.21,130.7
"2010-01-16 00:53:30",1595907,6.667,170.4,5.842,1.251,6.996,101.6273,3.452,4.623,28.56,0,109.7,13.51,4.22,132.4
"2010-01-16 00:54:00",1595908,5.925,166.8,5.377,1.031,5.997,101.6264,3.45,4.569,29.21,0,109.7,13.51,4.21,128.8
"2010-01-16 00:54:30",1595909,6.606,171.1,6.522,1.213,7.846,101.6279,3.453,4.727,29.06,0,109.7,13.51,4.22,133.1
"2010-01-16 00:55:00",1595910,7.208,173.1,5.81,1.065,8.5,101.6287,3.455,4.694,29.81,0,109.7,13.51,4.22,135.1
"2010-01-16 00:55:30",1595911,7.325,174,5.256,0.967,8.28,101.6287,3.455,4.676,30.26,0,109.7,13.51,4.22,136.0
"2010-01-16 00:56:00",1595912,7.077,172.1,6.122,1.138,7.734,101.629,3.456,4.571,30.73,0,109.7,13.51,4.22,134.1
"2010-01-16 00:56:30",1595913,6.49,170.2,6.53,1.222,6.952,101.629,3.456,4.688,31.13,0,109.7,13.51,4.22,132.2
"2010-01-16 00:57:00",1595914,6.507,169.8,6.061,1.188,6.46,101.6293,3.457,4.508,31.18,0,109.7,13.51,4.22,131.8
"2010-01-16 00:57:30",1595915,6.903,174.1,6.231,1.207,7.989,101.6293,3.457,4.684,31.22,0,109.7,13.51,4.22,136.1
"2010-01-16 00:58:00",1595916,6.897,174.5,6.226,1.245,7.832,101.6293,3.457,4.667,31.41,0,109.7,13.51,4.22,136.5
"2010-01-16 00:58:30",1595917,7.706,178.2,3.941,0.582,9.47,101.6293,3.457,4.724,31.53,0,109.7,13.51,4.22,140.2
"2010-01-16 00:59:00",1595918,6.767,172.4,6.193,1.227,7.372,101.6293,3.457,4.655,31.54,0,109.7,13.51,4.22,134.4
"2010-01-16 00:59:30",1595919,6.146,168.6,5.449,1.083,5.794,101.6293,3.457,4.577,31.72,0,109.7,13.52,4.22,130.6
"2010-01-16 01:00:00",1595920,6.492,171.5,6.368,1.175,6.613,101.6293,3.457,4.56,32.08,0,109.7,13.52,4.22,133.5
"2010-01-16 01:00:30",1595921,7.123,174.9,6.064,1.199,7.961,101.6293,3.457,4.671,32.44,0,109.7,13.51,4.22,136.9
"2010-01-16 01:01:00",1595922,7.237,174.6,6.344,1.142,8.51,101.6293,3.457,4.686,32.09,0,109.7,13.52,4.22,136.6
"2010-01-16 01:01:30",1595923,7.405,177.2,4.746,1.127,8.72,101.6293,3.457,4.675,31.92,0,109.7,13.52,4.22,139.2
"2010-01-16 01:02:00",1595924,7.408,175.6,5.654,1.006,8.37,101.6293,3.457,4.691,32.2,0,109.7,13.52,4.22,137.6
"2010-01-16 01:02:30",1595925,6.909,173.3,6.087,1.189,6.782,101.6282,3.454,4.556,32.3,0,109.7,13.52,4.22,135.3
"2010-01-16 01:03:00",1595926,5.584,166.4,0.526,0.034,4.493,101.6265,3.45,4.513,32.34,0,109.7,13.52,4.21,128.4
"2010-01-16 01:03:30",1595927,7.347,175.9,5.924,1.186,8.06,101.6191,3.431,4.633,32.19,0,109.7,13.52,4.19,137.9
"2010-01-16 01:04:00",1595928,7.638,176.8,5.236,1.1,8.61,101.6126,3.414,4.647,31.87,0,109.7,13.52,4.18,138.8
"2010-01-16 01:04:30",1595929,8.08,178.2,4.55,0.568,9.6,101.6118,3.412,4.716,31.8,0,109.7,13.52,4.18,140.2
"2010-01-16 01:05:00",1595930,7.947,177.6,4.638,0.752,8.86,101.6078,3.402,4.681,31.46,0,109.7,13.52,4.17,139.6
"2010-01-16 01:05:30",1595931,6.25,170.4,5.076,0.989,5.841,101.6061,3.398,4.557,31.46,0,109.7,13.52,4.16,132.4
"2010-01-16 01:06:00",1595932,7.466,177.7,5.826,1.107,7.869,101.6027,3.389,4.576,31.35,0,109.7,13.52,4.15,139.7
"2010-01-16 01:06:30",1595933,6.317,172.1,5.392,1.028,5.756,101.5996,3.381,4.501,30.71,0,109.7,13.52,4.14,134.1
"2010-01-16 01:07:00",1595934,7.85,180.7,5.032,0.952,9.36,101.6007,3.384,4.673,30.6,0,109.7,13.52,4.15,142.7
"2010-01-16 01:07:30",1595935,8.06,182.6,3.177,0.772,9.64,101.5985,3.378,4.683,30.47,0,109.7,13.52,4.14,144.6
"2010-01-16 01:08:00",1595936,8.03,183.4,2.694,0.751,9.52,101.5999,3.382,4.691,30.5,0,109.7,13.52,4.15,145.4
"2010-01-16 01:08:30",1595937,7.022,177.8,6.223,1.222,7.18,101.5979,3.377,4.508,30.04,0,109.7,13.52,4.14,139.8
"2010-01-16 01:09:00",1595938,6.947,177.3,6.022,1.234,6.42,101.5985,3.378,4.478,29.78,0,109.7,13.52,4.14,139.3
"2010-01-16 01:09:30",1595939,7.319,181,6.238,1.184,7.749,101.6019,3.387,4.581,29.92,0,109.7,13.52,4.15,143.0
"2010-01-16 01:10:00",1595940,6.991,178.9,6.554,1.268,7.064,101.6056,3.396,4.588,29.92,0,109.7,13.52,4.16,140.9
"2010-01-16 01:10:30",1595941,7.747,183.9,5.197,1.004,8.97,101.6056,3.396,4.691,30.04,0,109.7,13.53,4.16,145.9
"2010-01-16 01:11:00",1595942,7.284,181.7,6.019,1.195,7.779,101.6064,3.398,4.635,30.15,0,109.7,13.52,4.16,143.7
"2010-01-16 01:11:30",1595943,7.909,185.5,4.154,1.005,9.02,101.607,3.4,4.648,30.34,0,109.7,13.52,4.16,147.5
"2010-01-16 01:12:00",1595944,7.226,180.2,6.298,1.212,6.714,101.6087,3.404,4.548,30.66,0,109.7,13.52,4.17,142.2
"2010-01-16 01:12:30",1595945,7.721,182.9,6.197,1.209,7.397,101.6101,3.408,4.615,31.15,0,109.7,13.52,4.17,144.9
"2010-01-16 01:13:00",1595946,7.338,181.2,6.372,1.224,6.7,101.6098,3.407,4.457,31.1,0,109.7,13.52,4.17,143.2
"2010-01-16 01:13:30",1595947,8.04,185.8,5.08,0.978,8.68,101.6084,3.403,4.677,31.12,0,109.7,13.52,4.17,147.8
"2010-01-16 01:14:00",1595948,7.831,184,5.803,1.146,8.42,101.6087,3.404,4.612,30.95,0,109.7,13.52,4.17,146.0
"2010-01-16 01:14:30",1595949,8.28,186.2,4.486,0.929,8.89,101.6078,3.402,4.671,30.82,0,109.7,13.52,4.17,148.2
"2010-01-16 01:15:00",1595950,7.956,184.6,5.615,1.142,7.791,101.6073,3.401,4.552,30.42,0,109.7,13.52,4.16,146.6
"2010-01-16 01:15:30",1595951,7.981,185,5.793,1.107,8.02,101.6067,3.399,4.634,30.61,0,109.7,13.52,4.16,147.0
"2010-01-16 01:16:00",1595952,7.036,180.8,5.919,1.173,5.954,101.6013,3.385,4.498,30.49,0,109.7,13.52,4.15,142.8
"2010-01-16 01:16:30",1595953,7.798,184.4,6.17,1.154,7.446,101.601,3.385,4.512,30.51,0,109.7,13.53,4.15,146.4
"2010-01-16 01:17:00",1595954,7.942,185.4,5.869,1.062,8.13,101.5982,3.377,4.643,30.63,0,109.7,13.53,4.14,147.4
"2010-01-16 01:17:30",1595955,7.936,185.7,5.847,1.135,8.21,101.5965,3.373,4.64,30.48,0,109.7,13.53,4.14,147.7
"2010-01-16 01:18:00",1595956,8.22,188.4,4.794,0.884,8.37,101.5968,3.374,4.616,30.73,0,109.7,13.53,4.14,150.4
"2010-01-16 01:18:30",1595957,7.561,185.4,6.41,1.175,6.683,101.5959,3.372,4.532,30.74,0,109.7,13.53,4.14,147.4
"2010-01-16 01:19:00",1595958,6.844,183.8,6.012,1.145,5.761,101.5959,3.372,4.49,30.59,0,109.7,13.53,4.14,145.8
"2010-01-16 01:19:30",1595959,7.199,185.5,6.245,1.237,6.658,101.5957,3.371,4.588,30.58,0,109.7,13.53,4.13,147.5
"2010-01-16 01:20:00",1595960,7.189,186.3,6.4,1.23,7.226,101.5957,3.371,4.614,30.53,0,109.7,13.53,4.13,148.3
"2010-01-16 01:20:30",1595961,8.42,190.8,4.927,0.776,8.89,101.5954,3.37,4.606,30.63,0,109.8,13.53,4.13,152.8
"2010-01-16 01:21:00",1595962,8.39,192.2,3.562,0.801,9.03,101.5954,3.37,4.704,30.56,0,109.7,13.53,4.13,154.2
"2010-01-16 01:21:30",1595963,7.748,187.1,6.392,1.207,6.855,101.5954,3.37,4.533,30.4,0,109.7,13.53,4.13,149.1
"2010-01-16 01:22:00",1595964,6.745,183.5,5.637,1.045,5.092,101.5954,3.37,4.47,30.16,0,109.7,13.53,4.13,145.5
"2010-01-16 01:22:30",1595965,7.177,185,6.179,1.173,6.096,101.5954,3.37,4.442,29.94,0,109.7,13.53,4.13,147.0
"2010-01-16 01:23:00",1595966,7.505,186.5,6.418,1.262,7.083,101.5957,3.371,4.622,29.89,0,109.7,13.53,4.13,148.5
"2010-01-16 01:23:30",1595967,8.38,189.9,5.235,0.858,8.89,101.5954,3.37,4.66,29.81,0,109.7,13.53,4.13,151.9
"2010-01-16 01:24:00",1595968,8.3,189.2,5.328,0.867,8.85,101.5954,3.37,4.663,29.73,0,109.7,13.53,4.13,151.2
"2010-01-16 01:24:30",1595969,8.33,190.5,3.809,0.765,8.89,101.5954,3.37,4.689,29.66,0,109.7,13.53,4.13,152.5
"2010-01-16 01:25:00",1595970,7.315,185.2,6.106,1.214,6.555,101.5954,3.37,4.53,29.48,0,109.7,13.53,4.13,147.2
"2010-01-16 01:25:30",1595971,6.487,181.6,5.123,0.916,5.144,101.5954,3.37,4.516,29.37,0,109.7,13.53,4.13,143.6
"2010-01-16 01:26:00",1595972,7.29,184.5,6.232,1.252,6.348,101.5954,3.37,4.49,29.3,0,109.7,13.53,4.13,146.5
"2010-01-16 01:26:30",1595973,8.15,189.6,4.523,1.007,8.58,101.5954,3.37,4.67,30.04,0,109.7,13.53,4.13,151.6
"2010-01-16 01:27:00",1595974,8.42,190.6,3.352,0.692,9.23,101.5957,3.371,4.699,30.37,0,109.7,13.53,4.13,152.6
"2010-01-16 01:27:30",1595975,8.45,190.3,3.925,0.371,9.23,101.5962,3.372,4.658,30.04,0,109.7,13.53,4.14,152.3
"2010-01-16 01:28:00",1595976,7.579,187,5.967,1.202,7.566,101.596,3.372,4.579,29.57,0,109.7,13.53,4.14,149.0
"2010-01-16 01:28:30",1595977,6.226,179.7,2.415,0.475,4.112,101.5957,3.371,4.416,29.48,0,109.7,13.53,4.13,141.7
"2010-01-16 01:29:00",1595978,7.06,184.4,6.129,1.2,5.94,101.5957,3.371,4.52,29.77,0,109.8,13.53,4.13,146.4
"2010-01-16 01:29:30",1595979,8.05,189.5,5.457,1.073,7.964,101.5968,3.374,4.636,29.98,0,109.8,13.53,4.14,151.5
"2010-01-16 01:30:00",1595980,8.4,190.6,4.792,0.743,9.12,101.5971,3.375,4.666,29.9,0,109.7,13.53,4.14,152.6
"2010-01-16 01:30:30",1595981,7.706,187.7,6.41,1.16,8.01,101.5965,3.373,4.629,29.57,0,109.7,13.53,4.14,149.7
"2010-01-16 01:31:00",1595982,7.793,190.1,5.621,1.093,8.02,101.5997,3.381,4.57,29.27,0,109.7,13.53,4.15,152.1
"2010-01-16 01:31:30",1595983,7.091,187,6.772,1.142,6.536,101.5983,3.378,4.612,29.5,0,109.7,13.53,4.14,149.0
"2010-01-16 01:32:00",1595984,7.247,188.5,6.406,1.224,6.698,101.6006,3.383,4.477,29.35,0,109.7,13.53,4.15,150.5
"2010-01-16 01:32:30",1595985,7.25,189.3,6.401,1.241,7.015,101.5991,3.38,4.572,29.53,0,109.7,13.53,4.14,151.3
"2010-01-16 01:33:00",1595986,7.753,192,5.159,1.156,8.23,101.5977,3.376,4.646,29.54,0,109.7,13.53,4.14,154.0
"2010-01-16 01:33:30",1595987,7.658,189.6,6.08,1.122,7.846,101.5991,3.38,4.551,29.44,0,109.7,13.53,4.14,151.6
"2010-01-16 01:34:00",1595988,7.435,189.7,6.187,1.248,7.482,101.5994,3.381,4.594,29.54,0,109.7,13.53,4.14,151.7
"2010-01-16 01:34:30",1595989,6.729,186.2,6.077,1.134,6.192,101.5983,3.378,4.511,29.42,0,109.7,13.53,4.14,148.2
"2010-01-16 01:35:00",1595990,7.123,189.3,6.424,1.237,6.997,101.5966,3.373,4.602,29.47,0,109.7,13.53,4.14,151.3
"2010-01-16 01:35:30",1595991,6.591,190,6.005,1.26,6.679,101.5935,3.365,4.578,29.4,0,109.7,13.53,4.13,152.0
"2010-01-16 01:36:00",1595992,7.216,191.6,6.202,1.214,7.367,101.5904,3.357,4.528,29.34,0,109.7,13.54,4.12,153.6
"2010-01-16 01:36:30",1595993,7.492,193.8,5.402,1.053,8.41,101.5853,3.344,4.596,29.39,0,109.7,13.54,4.11,155.8
"2010-01-16 01:37:00",1595994,7.108,193.5,5.863,1.165,8.21,101.5828,3.338,4.611,29.37,0,109.7,13.54,4.10,155.5
"2010-01-16 01:37:30",1595995,7.137,193.7,6.054,1.145,8.21,101.5745,3.317,4.519,29.27,0,109.7,13.54,4.08,155.7
"2010-01-16 01:38:00",1595996,7.232,192.3,6.244,1.215,7.659,101.5715,3.309,4.602,29.26,0,109.7,13.54,4.07,154.3
"2010-01-16 01:38:30",1595997,6.422,188.7,5.78,1.187,5.963,101.5726,3.312,4.474,29.08,0,109.7,13.54,4.08,150.7
"2010-01-16 01:39:00",1595998,5.967,187.4,4.654,0.959,5.19,101.5698,3.305,4.455,29.07,0,109.7,13.54,4.07,149.4
"2010-01-16 01:39:30",1595999,7.385,195.2,5.231,1.143,8.25,101.5726,3.312,4.586,29.17,0,109.7,13.54,4.08,157.2
"2010-01-16 01:40:00",1596000,7.165,195.3,5.438,1.155,8.62,101.5738,3.315,4.591,29.09,0,109.7,13.54,4.08,157.3
"2010-01-16 01:40:30",1596001,7.678,197.4,4.263,0.776,8.96,101.5726,3.312,4.631,29.08,0,109.7,13.54,4.08,159.4
"2010-01-16 01:41:00",1596002,6.683,192.8,6.358,1.23,7.372,101.5724,3.311,4.514,28.95,0,109.7,13.54,4.08,154.8
"2010-01-16 01:41:30",1596003,6.74,192.5,6.267,1.225,7.077,101.5761,3.321,4.547,28.94,0,109.7,13.54,4.08,154.5
"2010-01-16 01:42:00",1596004,5.789,187.6,4.926,0.853,5.499,101.5729,3.313,4.481,28.89,0,109.7,13.54,4.08,149.6
"2010-01-16 01:42:30",1596005,7.259,195.6,5.701,1.106,8.36,101.5764,3.322,4.535,28.85,0,109.7,13.54,4.09,157.6
"2010-01-16 01:43:00",1596006,7.127,196.4,5.5,1.151,8.56,101.5706,3.307,4.563,28.77,0,109.7,13.54,4.07,158.4
"2010-01-16 01:43:30",1596007,7.506,197.6,4.976,0.878,9.27,101.5744,3.317,4.633,28.72,0,109.7,13.53,4.08,159.6
"2010-01-16 01:44:00",1596008,7.156,196,5.686,1.127,8.55,101.5724,3.311,4.631,28.6,0,109.7,13.53,4.08,158.0
"2010-01-16 01:44:30",1596009,7.094,195.1,6.374,1.183,7.84,101.5724,3.311,4.539,28.41,0,109.7,13.53,4.08,157.1
"2010-01-16 01:45:00",1596010,5.965,189.6,5.072,0.922,5.403,101.5729,3.313,4.416,28.36,0,109.7,13.53,4.08,151.6
"2010-01-16 01:45:30",1596011,6.95,194.5,6.217,1.205,7.023,101.5741,3.316,4.418,28.37,0,109.7,13.53,4.08,156.5
"2010-01-16 01:46:00",1596012,7.256,196.4,5.782,1.106,8.51,101.577,3.323,4.571,28.51,0,109.7,13.53,4.09,158.4
"2010-01-16 01:46:30",1596013,7.796,197.6,4.032,0.676,9.68,101.5749,3.318,4.656,28.55,0,109.7,13.53,4.08,159.6
"2010-01-16 01:47:00",1596014,7.216,195.3,5.705,1.096,8.68,101.5744,3.317,4.645,28.53,0,109.7,13.53,4.08,157.3
"2010-01-16 01:47:30",1596015,5.92,189.3,5.215,0.98,5.809,101.5758,3.32,4.485,28.32,0,109.7,13.53,4.08,151.3
"2010-01-16 01:48:00",1596016,6.534,191.3,5.979,1.204,6.203,101.5752,3.319,4.352,28.18,0,109.7,13.53,4.08,153.3